{"data":{"norad_id":68013,"epoch":"2026-09-20T01:52:30.648000Z","epoch_age_seconds":96007,"freshness":"FRESH","line1":"1 68013U 26039AD  26263.07813250  .00012449  00000+0  46079-3 0  9991","line2":"2 68013  43.0072  31.0473 0005027 263.5193  96.5087 15.27599084 31433","mean_motion":15.27599084,"eccentricity":0.0005027,"inclination_deg":43.0072,"raan_deg":31.0473,"arg_perigee_deg":263.5193,"mean_anomaly_deg":96.5087,"bstar":0.00046079,"rev_number":3143,"period_min":94.265571057386,"perigee_km":479.54286274883,"apogee_km":486.44104179744,"semimajor_km":6861.1289522731,"source":"CELESTRAK","updated_at":"2026-09-20T09:00:43.740652Z"}}